Вернуться в каталог

STARLINK-31086

АктивенСвязьVLEO
NORAD 58626·PAYLOAD·🇺🇸 United States

Запущен Dec 23, 2023 с Cape Canaveral Space Force Station

Loading…

Ближайшие Пролёты (ближайшие 24 часа)

TLE

СвежийSource: CelesTrak SupGP

Эпоха: Sep 14, 2026, 21:13 UTC

1 58626C 23203J   26257.88451389  .00027462  00000+0  99482-3 0  2577
2 58626  43.0028  78.2440 0001498 272.8047 340.5870 15.27559934    11

Отслеживайте STARLINK-31086 в реальном времени с AllMySat

Download on the App Store